Back to catalog

ICEYE-X82

AliveScienceSSO
NORAD 68996·PAYLOAD·🇸🇬 Singapore

Launched May 3, 2026 from Vandenberg Space Force Base

Loading…

Next Passes (next 24 hours)

TLE

FreshSource: Space-Track

Epoch: Sep 14, 2026, 04:24 UTC

1 68996U 26100S   26257.18350837  .00001714  00000-0  17614-3 0  9999
2 68996  97.7234 152.8456 0003373 191.3851 168.7293 14.91634244 19966

Track ICEYE-X82 in real time with AllMySat

Download on the App Store